Home   Weather   San Luis Obispo   Past weeks
Flag for USA

Past Weather in San Luis Obispo, California, USA — Yesterday and Last 2 Weeks

Now
80 °F

Sunny.


Feels Like: 80 °F
Forecast: 76 / 57 °F
Wind: 8 mph from West

Location: San Luis Obispo County-Mc Chesney Field

Current Time: Jul 22, 2019 at 1:46:54 pm

Latest Report: Jul 22, 2019 at 12:56 pm


Visibility: 10 mi

Pressure: 29.97 "Hg

Humidity: 44%

Dew Point: 56 °F

Location of San Luis ObispoLocation

Past Weather in San Luis Obispo — Graph

°F

San Luis Obispo Temperature Yesterday

Maximum temperature yesterday: 77 °F (at 12:56 pm)
Minimum temperature yesterday: 57 °F (at 8:56 pm)
Average temperature yesterday: 63 °F

High & Low Weather Summary for the Past Weeks

 TemperatureHumidityPressure
High90 °F (Jul 15, 10:56 am)100% (Jul 12, 3:56 am)30.08 "Hg (Jul 12, 3:56 am)
Low52 °F (Jul 13, 3:56 am)25% (Jul 15, 10:56 am)29.81 "Hg (Jul 12, 5:56 pm)
Average62 °F76%29.95 "Hg
* Reported Jul 7 11:03 am — Jul 22 11:56 am, San Luis Obispo. Weather by CustomWeather, © 2019

Note: Actual official high and low records may vary slightly from our data, if they occured in-between our weather recording intervals... More about our weather records

Advertising

San Luis Obispo Weather History for the Previous 24 Hours

Scroll right to see more
 ConditionsComfort  
Time TempWeatherWind HumidityBarometerVisibility
11:56 am
Mon, Jul 22
75 °FSunny.No wind50%29.98 "Hg10 mi
10:56 am70 °FSunny.No wind59%29.98 "Hg10 mi
9:56 am63 °FScattered clouds.No wind73%29.98 "Hg10 mi
9:27 am61 °FScattered clouds.No wind78%29.99 "Hg10 mi
8:56 am59 °FLow clouds.No wind84%29.98 "Hg10 mi
8:40 am58 °FLow clouds.No wind87%29.98 "Hg10 mi
7:56 am56 °FLow clouds.5 mph93%29.97 "Hg9 mi
6:56 am56 °FLow clouds.5 mph93%29.95 "Hg10 mi
5:56 am56 °FLow clouds.No wind93%29.95 "Hg8 mi
4:56 am56 °FLow clouds.No wind93%29.94 "Hg9 mi
3:56 am56 °FLow clouds.3 mph93%29.94 "Hg9 mi
2:56 am56 °FLow clouds.5 mph97%29.94 "Hg9 mi
1:56 am56 °FLow clouds.5 mph93%29.94 "Hg9 mi
1:21 am56 °FLow clouds.6 mph97%29.95 "Hg7 mi
12:56 am57 °FLow clouds.6 mph93%29.94 "Hg9 mi
11:56 pm
Sun, Jul 21
57 °FLow clouds.6 mph93%29.95 "Hg10 mi
10:56 pm57 °FPassing clouds.6 mph90%29.95 "Hg10 mi
10:17 pm57 °FPassing clouds.7 mph90%29.95 "Hg9 mi
9:56 pm57 °FClear.8 mph90%29.95 "Hg10 mi
8:56 pm57 °FClear.8 mph90%29.93 "Hg10 mi
7:56 pm60 °FSunny.9 mph80%29.92 "Hg10 mi
6:56 pm63 °FSunny.12 mph75%29.92 "Hg10 mi
5:56 pm67 °FSunny.14 mph68%29.91 "Hg10 mi
4:56 pm71 °FSunny.15 mph59%29.92 "Hg10 mi
3:56 pm74 °FSunny.16 mph53%29.92 "Hg10 mi
2:56 pm74 °FSunny.12 mph53%29.92 "Hg10 mi
1:56 pm75 °FSunny.12 mph52%29.93 "Hg10 mi
Weather by CustomWeather, © 2019

See weather overview